Regional Weather Roundup
Issued by NWS Kansas City/Pleasant Hill, MO

Home | Current Version | Previous Version | Text Only | Print | Product List | Glossary On
Versions: 1 2 3 4 5 6 7 8 9 10 11 12 13 14 15 16 17 18 19 20 21 22 23 24 25 26 27
000
ASUS43 KEAX 230210
RWREAX

WEATHER ROUNDUP FOR EASTERN KANSAS AND NORTHWEST MISSOURI
NATIONAL WEATHER SERVICE KANSAS CITY/PLEASANT HILL MO
800 PM CST SUN JAN 22 2017

KSZ040-057-103>105-MOZ028-029-037-043-230300-
...KANSAS CITY METROPOLITAN AREA...

CITY           SKY/WX    TMP DP  RH WIND       PRES   REMARKS
K.C. INTL      CLOUDY    38  32  79 NW9       29.84R WCI  31
K.C. DOWNTOWN  CLOUDY    40  34  79 NW9       29.84R WCI  34
LEES SUMMIT    CLOUDY    38  34  85 NW10      29.83R WCI  31
OLATHE - IXD   CLOUDY    38  34  85 NW13      29.85R WCI  30
OLATHE - OJC   CLOUDY    37  34  89 N12       29.83R WCI  29
LAWRENCE       CLOUDY    39  35  86 NW15      29.87R WCI  31

$$

MOZ001>008-011>017-020>025-030>033-038>040-044>046-053-054-230300-
...NORTHERN AND CENTRAL MISSOURI...

CITY           SKY/WX    TMP DP  RH WIND       PRES   REMARKS
ST. JOSEPH     CLOUDY    38  35  89 NW9       29.86R WCI  31
MOSBY          CLOUDY    37  34  87 NW14      29.84S WCI  29
WARRENSBURG    CLOUDY    37  34  87 NW10      29.80S WCI  30
WHITEMAN AFB   CLOUDY    39  39 100 NW13      29.77R WCI  31
CLINTON        CLOUDY    39  36  87 NW14      29.80S WCI  31
SEDALIA        CLOUDY    40  37  89 NW15      29.78R WCI  32
WARSAW         NOT AVBL
CHILLICOTHE      N/A     39  35  86 NW8       29.81R WCI  33
KIRKSVILLE     CLOUDY    38  36  92 NW12      29.75S WCI  30

$$

MOZ041-047>049-056>058-063>065-088>090-097-230300-
...EASTERN AND SOUTHERN MISSOURI...

CITY           SKY/WX    TMP DP  RH WIND       PRES   REMARKS
ST. LOUIS INTL CLOUDY    46  37  71 N15G24    29.68R
SPIRIT OF STL  CLOUDY    44  38  79 N12       29.70R
COLUMBIA       CLOUDY    40  36  86 N13       29.75R WCI  32
JEFFERSON CITY CLOUDY    41  36  82 NW7       29.76R
ROLLA          CLOUDY    41  39  93 NW16      29.70R WCI  33
SPRINGFIELD    CLOUDY    37  35  92 N22G30    29.77R WCI  26
BRANSON        CLOUDY    43  43 100 NW14G22   29.72R
JOPLIN         CLOUDY    35  34  96 N20       29.83R FOG     WCI  24
WEST PLAINS    CLOUDY    45  40  82 N16G24    29.66R

$$

IAZ060-094-KSZ022-034>040-054-083-096-NEZ052-066-093-230300-
...KANSAS...SOUTHEAST NEBRASKA AND IOWA...

CITY           SKY/WX    TMP DP  RH WIND       PRES   REMARKS
TOPEKA         CLOUDY    40  34  79 NW10      29.88R WCI  33
MANHATTAN      CLEAR     34  30  85 CALM      29.91R
EMPORIA        CLEAR     33  30  88 W8        29.89R WCI  26
CHANUTE        CLOUDY    40  33  76 NW8       29.86S WCI  34
WICHITA        CLEAR     42  30  62 N8        29.90R
OMAHA          CLEAR     31  27  85 NW7       29.88R WCI  24
LINCOLN        CLEAR     30  28  92 CALM      29.90R
FALLS CITY     CLEAR     33  31  92 NW8       29.87R WCI  26
LAMONI         CLOUDY    37  35  92 NW10      29.80R WCI  30
DES MOINES     CLOUDY    38  36  92 NW9       29.81R WCI  31

$$





USA.gov is the U.S. government's official web portal to all federal, state and local government web resources and services.